Change the Weather History Date:

Wednesday, February 6, 2013

  Actual Average Record
Temperature  
Mean Temperature 34 °F -  
Max Temperature 39 °F 35 °F 62 °F (1991)
Min Temperature 28 °F 20 °F 2 °F (1981)
Degree Days  
Heating Degree Days 30    
Moisture  
Dew Point 26 °F    
Average Humidity 79    
Maximum Humidity 100    
Minimum Humidity 40    
Precipitation  
Precipitation 0.00 in - - ()
Sea Level Pressure  
Sea Level Pressure 30.02 in    
Wind  
Wind Speed 6 mph (NW)    
Max Wind Speed 14 mph    
Max Gust Speed 24 mph    
Visibility 9 miles    
Events Snow    
Averages and records for this station are not official NWS values.
T = Trace of Precipitation, MM = Missing Value Source: NWS Daily Summary

Daily Weather History Graph

Daily Weather History Graph

Search for Another Location

Airport or City:

Trip Planner

Search our weather history database for the weather conditions in past years. The results will help you decide how hot, cold, wet, or windy it might be!

Date:

Astronomy

Feb. 06, 2013 Rise Set
Actual Time 6:48 AM EST 5:05 PM EST
Civil Twilight 6:19 AM EST 5:34 PM EST
Nautical Twilight 5:46 AM EST 6:07 PM EST
Astronomical Twilight 5:14 AM EST 6:39 PM EST
Moon 3:30 AM EST (2/6) 1:19 PM EST (2/6)
Length of Visible Light 11h 14m
Length of Day
10h 17m
Waning Crescent, 17% of the Moon is Illuminated
Feb 6
Waning Crescent
Feb 10
New
Feb 17
First Quarter
Feb 25
Full
Mar 4
Last Quarter

Hourly Weather History & Observations

Time (EST) Temp. Windchill Dew Point Humidity Pressure Visibility Wind Dir Wind Speed Gust Speed Precip Events Conditions
12:53 AM 30.9 °F 26.2 °F 30.0 °F 96% 29.90 in 7.0 mi NNE 4.6 mph - 0.00 in   Overcast
2:53 AM 30.9 °F 25.2 °F 30.0 °F 96% 29.90 in 6.0 mi North 5.8 mph - 0.00 in Snow Light Snow
3:20 AM 30.2 °F 24.3 °F 30.2 °F 100% 29.89 in 5.0 mi North 5.8 mph - 0.00 in Snow Light Snow
3:32 AM 30.2 °F - 30.2 °F 100% 29.89 in 6.0 mi Calm Calm - 0.00 in   Overcast
3:53 AM 30.9 °F - 30.0 °F 96% 29.90 in 9.0 mi Calm Calm - 0.00 in   Overcast
4:34 AM 30.2 °F 25.4 °F 30.2 °F 100% 29.91 in 8.0 mi NNW 4.6 mph - N/A   Overcast
4:53 AM 30.9 °F 26.2 °F 30.9 °F 100% 29.92 in 8.0 mi NNW 4.6 mph - N/A   Overcast
5:31 AM 30.2 °F 24.3 °F 30.2 °F 100% 29.92 in 8.0 mi NNW 5.8 mph - N/A   Overcast
5:45 AM 30.2 °F 24.3 °F 30.2 °F 100% 29.93 in 8.0 mi NNW 5.8 mph - N/A   Overcast
5:53 AM 30.9 °F 24.3 °F 30.0 °F 96% 29.94 in 7.0 mi NNW 6.9 mph - N/A   Overcast
6:15 AM 30.2 °F 25.4 °F 30.2 °F 100% 29.94 in 7.0 mi NNW 4.6 mph - N/A   Overcast
6:53 AM 30.0 °F - 28.9 °F 96% 29.96 in 7.0 mi Calm Calm - N/A   Overcast
7:53 AM 30.9 °F - 30.0 °F 96% 29.98 in 6.0 mi Calm Calm - N/A   Overcast
8:53 AM 32.0 °F 28.7 °F 30.9 °F 96% 30.00 in 8.0 mi NW 3.5 mph - N/A   Overcast
9:03 AM 33.8 °F 30.8 °F 32.0 °F 93% 29.99 in 9.0 mi NW 3.5 mph - N/A   Overcast
9:43 AM 33.8 °F 27.7 °F 32.0 °F 93% 30.01 in 10.0 mi WNW 6.9 mph - N/A   Overcast
9:53 AM 34.0 °F 28.8 °F 33.1 °F 96% 30.01 in 10.0 mi WNW 5.8 mph - N/A   Overcast
10:00 AM 35.6 °F 29.2 °F 32.0 °F 87% 30.01 in 10.0 mi WNW 8.1 mph - N/A   Overcast
10:53 AM 36.0 °F 28.0 °F 32.0 °F 86% 30.01 in 10.0 mi NW 11.5 mph - N/A   Overcast
11:53 AM 37.0 °F 30.4 °F 30.0 °F 76% 30.01 in 10.0 mi WNW 9.2 mph - N/A   Overcast
12:00 PM 35.6 °F 28.0 °F 28.4 °F 75% 30.01 in 10.0 mi WNW 10.4 mph - N/A   Mostly Cloudy
12:53 PM 37.9 °F 32.1 °F 27.0 °F 65% 30.00 in 10.0 mi WNW 8.1 mph - N/A   Partly Cloudy
1:53 PM 37.9 °F 30.5 °F 27.0 °F 65% 30.01 in 10.0 mi West 11.5 mph 17.3 mph N/A   Partly Cloudy
2:53 PM 39.0 °F 31.4 °F 27.0 °F 62% 30.02 in 10.0 mi West 12.7 mph 18.4 mph N/A   Scattered Clouds
3:53 PM 39.0 °F 31.0 °F 21.0 °F 49% 30.04 in 10.0 mi WNW 13.8 mph 20.7 mph N/A   Overcast
4:53 PM 35.1 °F 28.6 °F 19.0 °F 52% 30.07 in 10.0 mi WNW 8.1 mph - N/A   Clear
5:53 PM 34.0 °F 28.0 °F 19.0 °F 54% 30.10 in 10.0 mi WNW 6.9 mph - N/A   Clear
6:53 PM 33.1 °F 28.7 °F 19.0 °F 56% 30.14 in 10.0 mi WNW 4.6 mph - N/A   Clear
7:53 PM 33.1 °F 25.5 °F 18.0 °F 54% 30.17 in 10.0 mi WNW 9.2 mph - N/A   Clear
8:53 PM 32.0 °F 22.5 °F 10.0 °F 40% 30.20 in 10.0 mi NW 12.7 mph 24.2 mph N/A   Clear
9:53 PM 30.9 °F 21.7 °F 10.0 °F 42% 30.23 in 10.0 mi NW 11.5 mph 19.6 mph N/A   Clear
10:53 PM 30.0 °F 20.5 °F 9.0 °F 41% 30.25 in 10.0 mi NNW 11.5 mph 20.7 mph N/A   Clear
11:53 PM 28.9 °F 18.2 °F 7.0 °F 40% 30.28 in 10.0 mi NNW 13.8 mph 19.6 mph N/A   Clear